QIKCOM-1 (42983 NORAD) Tracking and Keplerian Element Data

This shows tracking and keplerian element data for the satellite.

Feedback or suggestion? Click here.




ElementValue
Catalog42983
NameQIKCOM-1
Epoch Orbit22275
Epoch Day266.30030814
Epoch Year2021
RAAN121.5277
Inclination51.6346
Eccentricity0.000236
Argument of Perigee10.4147
Mean Anonmoly349.6898
Mean Motion15.68880483
Decay Rate0.00015377
L11 42983U 98067NF 21266.30030814 .00015377 00000-0 13587-3 0 9992
L22 42983 51.6346 121.5277 0002360 10.4147 349.6898 15.68880483222752

Live tracking and technical data element details for QIKCOM-1 (NORAD 42983). QIKCOM-1 can be tracked NOW for your location showing map with azimuth and elevation plus other details from your city location.

Track the satellite on the map from your city or location and see movement details for azimuth, elevation, latitude, longitude, range, height, and movement on the map or in text.







IsCatalogInMostPopularTable: catalog: 42983, numindb: 541
Update: records affected: 1



GetName: 42983 QIKCOM-1

Hit Count: updated at: Mon, 27 Sep 2021 00:12:39 GMT